Tracking 29892 objects as of 21-Nov-2024
HD Live streaming from Space Station
objects crossing your sky now

STARLINK-3934

Track STARLINK-3934 now!
10-day predictions
STARLINK-3934 is classified as:


NORAD ID: 52675
Int'l Code: 2022-053V
Perigee: 545.8 km
Apogee: 548.0 km
Inclination: 53.2 °
Period: 95.4 minutes
Semi major axis: 6917 km
RCS: Unknown
Launch date: May 18, 2022
Source: United States (US)
Launch site: AIR FORCE EASTERN TEST RANGE (AFETR)
Your satellite tracking list
Your tracking list is empty




NASA's NSSDC Master Catalog

Two Line Element Set (TLE):
1 52675U 22053V   24325.81803078  .00000653  00000-0  59129-4 0  9992
2 52675  53.2164 111.4118 0001613  90.6070 269.5107 15.08843419139206
Source of the keplerian elements: AFSPC